STARLINK-1214

decayed
NORAD ID: 45224 Int'l Des: 2020-012 Owner: SPXS Country: US Constellation: starlink
LEOCIRCULAR
Group

About STARLINK-1214

Description loading...

Altitude History

Altitude vs Time

uPlot chart will show altitude changes over time

Two-Line Element Set

1 45224U 20012AY 22157.71127634 .13275819 12156-4 32777-2 0 9993
2 45224 53.0228 226.5122 0008080 326.8910 127.7648 16.28352603130166
Epoch: Jun 6, 2022 • Age: 28808 hours

Current Status

Position data unavailable
Launch Date Feb 17, 2020
Age 5.5 years
Decay Date Jun 7, 2022
Type internet

Technical Details

Classification Payload
Mass 260.00 kg
Dry Mass 248.00 kg
Total Mass 260.00 kg
Length 0.20 m
Diameter 2.80 m
Span 9.00 m
Shape Box + pan
Manufacturer SPXS
Bus Type Starlink
Phase Status Unknown Transfer Status
Owner/State SPXS/US

Large Constellations

Loading constellations...